Date,TemperatureHighF,TemperatureAvgF,TemperatureLowF,DewpointHighF,DewpointAvgF,DewpointLowF,HumidityHigh,HumidityAvg,HumidityLow,PressureMaxIn,PressureMinIn,WindSpeedMaxMPH,WindSpeedAvgMPH,GustSpeedMaxMPH,PrecipitationSumIn
2013-3-1,73.7,55.2,35.9,31.6,24.0,17.1,54,32,17,30.35,30.18,11,1,11,0.00
2013-3-2,83.7,62.2,39.1,33.2,28.5,24.3,58,31,12,30.28,30.05,13,1,13,0.00
2013-3-3,81.1,63.7,43.9,32.6,28.9,23.2,58,30,13,30.08,29.85,16,2,16,0.00
2013-3-4,72.5,63.7,49.1,35.7,30.6,20.5,55,30,19,30.03,29.81,21,4,21,0.00
2013-3-5,78.7,62.1,45.5,35.9,32.4,29.1,61,36,18,30.08,29.94,16,1,16,0.00
2013-3-6,80.5,66.0,53.6,36.6,33.9,30.8,48,32,19,29.99,29.81,14,1,14,0.00
2013-3-7,78.8,63.7,44.6,34.9,30.3,24.8,56,31,14,29.93,29.81,22,2,22,0.00
2013-3-8,65.1,56.8,42.9,48.7,38.3,31.5,75,51,32,29.97,29.70,32,6,32,0.08
2013-3-9,54.5,48.1,42.3,38.4,35.8,32.4,82,63,47,30.11,29.96,16,2,16,0.00
2013-3-10,63.3,52.9,42.7,39.3,36.4,31.7,79,55,34,30.17,30.07,19,4,19,0.00
2013-3-11,72.1,55.6,37.9,36.2,32.0,28.1,76,44,20,30.18,30.00,13,2,13,0.00
2013-3-12,81.4,61.3,40.4,39.8,33.9,28.5,65,39,16,30.08,29.94,13,2,13,0.00
2013-3-13,88.0,68.2,45.0,37.6,34.3,29.4,66,33,13,30.09,29.95,14,2,14,0.00
2013-3-14,92.7,72.4,51.9,35.4,31.5,26.6,44,25,10,30.06,29.91,12,2,12,0.00
2013-3-15,93.5,71.1,52.6,36.7,31.6,25.4,42,26,9,29.97,29.81,19,2,19,0.00
2013-3-16,89.2,71.2,51.0,32.2,27.3,21.4,39,21,10,29.84,29.65,21,3,23,0.00
2013-3-17,83.2,67.7,49.3,32.4,27.7,22.6,38,23,14,29.86,29.72,26,4,26,0.00
2013-3-18,82.9,67.4,50.9,35.9,30.3,26.4,41,27,13,29.93,29.83,13,1,13,0.00
2013-3-19,79.8,66.3,51.4,39.1,33.5,30.2,47,31,19,29.99,29.86,17,2,17,0.00
2013-3-20,82.9,67.3,52.6,36.3,32.7,30.1,43,29,18,29.99,29.80,16,1,16,0.00
2013-3-21,77.8,67.3,54.0,38.1,35.0,30.5,45,31,23,29.81,29.64,13,2,13,0.00
2013-3-22,80.1,68.7,54.0,38.2,34.3,30.2,40,29,18,29.74,29.60,23,3,23,0.00
2013-3-23,74.9,63.2,50.5,35.8,26.1,11.5,51,27,13,29.95,29.74,21,3,21,0.00
2013-3-24,76.0,60.3,41.3,19.3,15.0,10.9,33,18,10,29.98,29.82,15,2,16,0.00
2013-3-25,81.2,63.7,41.9,26.3,20.1,12.5,33,19,12,29.98,29.85,15,1,15,0.00
2013-3-26,87.5,69.4,51.6,28.5,23.6,20.0,30,19,10,29.92,29.75,21,2,21,0.00
2013-3-27,84.0,71.0,54.7,33.5,26.1,21.1,28,19,13,29.92,29.78,20,3,20,0.00
2013-3-28,84.7,68.7,52.6,35.1,26.2,18.7,30,21,13,29.99,29.87,17,1,32,0.00
2013-3-29,86.2,70.8,53.1,38.6,28.2,21.6,37,22,11,30.02,29.90,16,2,16,0.00
2013-3-30,84.3,69.7,57.3,34.1,27.7,20.7,32,21,14,29.99,29.85,19,2,19,0.00
2013-3-31,86.3,69.2,50.3,34.5,29.6,24.2,42,24,15,29.99,29.82,15,1,15,0.00